Погода в Плосках

Россия / Тверская область     56°39′42″N   36°39′23″E
темп.,
°C
ветер,
м/с
пор.,
м/с
влажн.,
%
обл.,
%
осадки,
мм/ч
давл.,
гПа
погр.,
м
16 апреля, пт
пт1600:00+7св6148598 0.0 1021583
03:00+6всв6148698 0.0 1021579
06:00+5всв51388100 0.0 1021538
09:00+7всв51080100 0.0 1022585
12:00+12всв5863100 0.0 1023852
15:00+15всв6956100 0.0 10221142
18:00+13всв61163100 0.0 10221151
21:00+10всв61275100 0.0 1023929
17 апреля, сб
сб1700:00+9всв51378100 0.0 1023697
03:00+7всв5128096 0.0 1024551
06:00+6всв4118382 0.0 1024486
09:00+8всв5971100 0.0 1025577
12:00+13всв6956100 0.0 1024962
15:00+15всв6951100 0.0 10241227
18:00+13всв6105281 0.0 10231004
21:00+9всв5135423 0.0 1024720
18 апреля, вс
вс1800:00+7всв5136041 0.0 1024607
03:00+6всв5136825 0.0 1024543
06:00+5всв5137380 0.0 1024517
09:00+8всв61056100 0.0 1024806
12:00+11в6944100 0.0 10241390
15:00+12в6939100 0.0 10241757
18:00+11в4948100 0.0 10241494
21:00+7юв2467100 0.0 102593
19 апреля, пн
пн1900:00+6св2281100 0.0 102639
03:00+6всв41078100 0.0 1026497
06:00+5всв4108598 0.0 1026711
09:00+6всв51077100 0.0 1027958
12:00+6в5976100 0.0 1027936
15:00+6в51081100 0.1 1027864
18:00+6в51176100 0.0 1026915
21:00+6в51276100 0.0 1026905
20 апреля, вт
вт2000:00+6в51269100 0.0 1024773
03:00+4в51365100 0.0 1023554
06:00+3в61470100 0.0 1022598
09:00+6в61565100 0.0 1019747
12:00+8в71564100 0.0 10171089
15:00+8в81769100 0.1 10121227
18:00+7в91985100 3.0 10091519
21:00+7в82087100 4.3 10061417